THOR ABLESTAR DEB

Satellite information

Favourite Embed

Satellite Type and Status

DEBRISIN ORBIT

Key statistics

Satellite THOR ABLESTAR DEB at a glance.

Uptime

23384

Days in orbit

Revolutions

≈ 14.1

Per day

Orbit

LEO

Low Earth Orbit

Inclination

66.9

Latest

Satellite identification and parameters

Extended collection of information and parameters for THOR ABLESTAR DEB.

Object identification

Identified? True

Debris? True

Object name: THOR ABLESTAR DEB

International designator: 1961-015DA

Object number (NORAD): 324

Object ID (CCSDS): 324

Country: UNITED STATES OF AMERICA (US)

Current information (Y/N): Y

RCS size: SMALL

Orbital parameters

Period: 101.917 minutes

Inclination: 66.8655 deg

SMA: 7227.567 km

Apoapsis: 903.883 km

Periapsis: 794.981 km

RAAN: 184.9442 deg

Eccentricy: 0.0075338

Argument of periapsis: 281.9218 deg

Mean anomaly: 77.3433 deg

Mean motion: 14.1291014 rev/day

Mean motion (dot): 0.00000196 rev/day2

B* drag term: 0.00014489 1/REarth

Two-line elements (TLE)

Creation date: July 6, 2025, 6:05 p.m.

Reference frame: TEME

Reference center: EARTH

Epoch: July 6, 2025, 9:43 a.m. UTC

TLE line 0: 0 THOR ABLESTAR DEB

TLE line 1: 1 00324U 61015DA 25187.40515217 .00000196 00000-0 14489-3 0 9995

TLE line 2: 2 00324 66.8655 184.9442 0075338 281.9218 77.3433 14.12910140274212

Live tracking on map

Real-time ground track for satellite THOR ABLESTAR DEB.

In-orbit conjunctions

A list of the most updated potential collisions computed for object THOR ABLESTAR DEB.

Target Orbit TCA Probability of collision Miss distance Type
CZ-6A DEB LEO 2025-01-02 20:33:53 0.0003824307 181.0 (m) DEBRIS
CZ-6A DEB LEO 2024-09-20 03:09:49 0.0006685913 580.0 (m) DEBRIS

Associated space launch

THOR ABLESTAR DEB was lifted into orbit during the mission ‘Thor DM-21 Ablestar | Transit 4A & Injun-1 & Solrad 3’, on board a Thor DM-21 Ablestar space rocket.

The launch took place on June 29, 1961, 4:23 a.m. from Space Launch Complex 17B.

For more information about the launch, click the button.

Launch to space Thor DM-21 Ablestar | Transit 4A & Injun-1 & Solrad 3
Thor DM-21 Ablestar | Transit 4A & Injun-1 & Solrad 3

Agency: N/A

Status: Launch Successful

Launch date: June 29, 1961, 4:23 a.m. UTC

Rocket: Thor DM-21 Ablestar

Launch pad: Space Launch Complex 17B

Location: Cape Canaveral SFS, FL, USA

...

Latest news about this satellite

There are no fresh news available about this satellite. Check back as we update our databases every day.


Newsletter sign-up

Weekly statistics, charts and insights to help you stay on top of the space industry.